This is the latest recevied weather packets stored in our database for station/object W7TRD. If no packets are shown the sender has not sent any weather packets the latest 10 day(s).
| Time | Temp. | Humidity | Pressure | Rain* | Wind** | Luminosity | Snow |
|---|---|---|---|---|---|---|---|
| 1777861586 | 30° C | 37% | 1007.2 hPa | 0 mm | - | 37 W/m² | - |
| 1777861281 | 30° C | 36% | 1007.4 hPa | 0 mm | - | 45 W/m² | - |
| 1777860980 | 30.56° C | 36% | 1007.3 hPa | 0 mm | - | 52 W/m² | - |
| 1777860676 | 30.56° C | 35% | 1007.4 hPa | 0 mm | - | 60 W/m² | - |
| 1777860373 | 30.56° C | 35% | 1007.5 hPa | 0 mm | - | 68 W/m² | - |
| 1777860069 | 30.56° C | 35% | 1007.5 hPa | 0 mm | - | 77 W/m² | - |
| 1777859766 | 31.11° C | 35% | 1007.3 hPa | 0 mm | - | 88 W/m² | - |
| 1777859462 | 31.11° C | 34% | 1007.5 hPa | 0 mm | - | 98 W/m² | - |
| 1777859158 | 31.11° C | 34% | 1007.4 hPa | 0 mm | - | 111 W/m² | - |
| 1777858855 | 31.67° C | 33% | 1007.3 hPa | 0 mm | - | 124 W/m² | - |
| 1777858553 | 31.67° C | 33% | 1007.5 hPa | 0 mm | - | 138 W/m² | - |
| 1777858250 | 31.67° C | 34% | 1007.5 hPa | 0 mm | - | 152 W/m² | - |
| 1777857947 | 31.67° C | 33% | 1007.5 hPa | 0 mm | - | 162 W/m² | - |
| 1777857645 | 31.67° C | 34% | 1007.6 hPa | 0 mm | - | 177 W/m² | - |
| 1777857342 | 31.67° C | 34% | 1007.7 hPa | 0 mm | - | 183 W/m² | - |
| 1777857038 | 31.67° C | 33% | 1007.8 hPa | 0 mm | - | 190 W/m² | - |
| 1777856733 | 32.22° C | 33% | 1007.8 hPa | 0 mm | - | 204 W/m² | - |
| 1777856430 | 32.22° C | 33% | 1007.8 hPa | 0 mm | - | 221 W/m² | - |
| 1777856126 | 32.22° C | 33% | 1007.9 hPa | 0 mm | - | 233 W/m² | - |
| 1777855824 | 32.22° C | 33% | 1007.9 hPa | 0 mm | - | 244 W/m² | - |
| 1777855522 | 32.78° C | 33% | 1008.1 hPa | 0 mm | - | 260 W/m² | - |
| 1777855219 | 32.78° C | 32% | 1007.9 hPa | 0 mm | - | 274 W/m² | - |
| 1777854915 | 32.78° C | 32% | 1008.1 hPa | 0 mm | - | 287 W/m² | - |
| 1777854612 | 32.78° C | 33% | 1007.9 hPa | 0 mm | - | 302 W/m² | - |
| 1777854309 | 32.78° C | 32% | 1007.9 hPa | 0 mm | - | 316 W/m² | - |
* Rain latest hour (hover to see other rain measurements)
** Current wind speed in m/s (hover to see current wind gust speed)